Location: Johnson City
(36.3130°N, 82.3540°W)
Time: 23:43:13
(UTC-04:00)

Tiangong 2 - Visible Passes

Search period start: 20 October 2018 00:00
Search period end: 30 October 2018 00:00
Orbit: 384 x 393 km, 42.8° (Epoch: 20 October)

Date Brightness Start Highest point End Pass type
(mag) Time Alt. Az. Time Alt. Az. Time Alt. Az.
20 Oct 3.3 05:50:52 19° SSE 05:50:52 19° SSE 05:52:02 10° SE visible
25 Oct 4.0 20:41:19 10° SW 20:41:40 12° SSW 20:41:40 12° SSW visible
26 Oct 2.7 19:43:38 10° SSW 19:46:00 20° SE 19:46:25 19° SE visible
27 Oct 2.0 20:21:03 10° WSW 20:23:21 44° SW 20:23:21 44° SW visible
28 Oct 1.8 19:22:52 10° SW 19:25:51 39° SSE 19:27:53 17° E visible
28 Oct 4.4 20:59:41 10° W 21:00:11 13° W 21:00:11 13° W visible
29 Oct 1.3 20:01:04 10° WSW 20:04:12 59° NNW 20:04:38 52° NNE visible
